"2016-07-25 00:00:00",1838809,6.48,214.2,1.024,0.079,23.93,109.5619,23.77,24.83,33.36,0,111.3,13.01,24.60,176.2
"2016-07-25 00:00:30",1838810,6.434,213.6,0.907,0.146,24.05,109.5401,23.71,24.79,32.97,0,111.3,13.01,24.55,175.6
"2016-07-25 00:01:00",1838811,6.458,215.2,0.453,0.062,24.07,109.535,23.7,24.75,32.47,0,111.3,13.01,24.53,177.2
"2016-07-25 00:01:30",1838812,6.842,214.2,1.422,0.227,23.99,109.5165,23.65,24.72,30.81,0,111.3,13.01,24.49,176.2
"2016-07-25 00:02:00",1838813,6.817,214.4,1.443,0.178,24.03,109.5013,23.61,24.69,30.08,0,111.3,13.01,24.45,176.4
"2016-07-25 00:02:30",1838814,6.641,215.3,3.37,0.299,24.03,109.4977,23.6,24.66,29.89,0,111.3,13.01,24.44,177.3
"2016-07-25 00:03:00",1838815,6.652,212.3,1.735,0.299,24.21,109.478,23.55,24.63,29.01,0,111.3,13.01,24.39,174.3
"2016-07-25 00:03:30",1838816,6.751,211.3,2.357,0.213,24.35,109.4677,23.53,24.61,28.65,0,111.3,13.01,24.36,173.3
"2016-07-25 00:04:00",1838817,6.436,211.6,1.58,0.18,24.47,109.4671,23.53,24.57,28.76,0,111.2,13.01,24.36,173.6
"2016-07-25 00:04:30",1838818,6.208,213.8,3.112,0.251,24.28,109.4556,23.5,24.54,29.06,0,111.2,13.01,24.33,175.8
"2016-07-25 00:05:00",1838819,5.986,213.4,1.624,0.128,24.49,109.4382,23.45,24.54,29.58,0,111.2,13.02,24.29,175.4
"2016-07-25 00:05:30",1838820,5.617,214.9,0.94,0.168,24.52,109.434,23.44,24.51,29.98,0,111.2,13.02,24.27,176.9
"2016-07-25 00:06:00",1838821,5.573,213.4,3.082,0.355,24.33,109.434,23.44,24.51,30.23,0,111.2,13.02,24.27,175.4
"2016-07-25 00:06:30",1838822,5.64,210,1.816,0.173,24.53,109.434,23.44,24.48,29.82,0,111.2,13.02,24.27,172.0
"2016-07-25 00:07:00",1838823,5.441,209.7,2.624,0.206,24.64,109.434,23.44,24.48,30.66,0,111.2,13.01,24.27,171.7
"2016-07-25 00:07:30",1838824,5.107,203.4,3.645,0.392,25.01,109.4355,23.44,24.48,32.21,0,111.2,13.01,24.28,165.4
"2016-07-25 00:08:00",1838825,4.651,208.6,1.272,0.082,25.08,109.4376,23.45,24.48,32.94,0,111.2,13.01,24.28,170.6
"2016-07-25 00:08:30",1838826,4.702,205.9,3.979,0.098,25.02,109.4383,23.45,24.47,33.12,0,111.2,13.01,24.29,167.9
"2016-07-25 00:09:00",1838827,4.503,204.8,2.857,0.258,24.94,109.4453,23.47,24.47,30.99,0,111.2,13.01,24.30,166.8
"2016-07-25 00:09:30",1838828,5.323,216.3,5.771,0.759,24.71,109.4533,23.49,24.5,31.01,0,111.2,13.01,24.32,178.3
"2016-07-25 00:10:00",1838829,5.033,218.4,5.837,0.577,24.35,109.4615,23.51,24.49,30.83,0,111.2,13.01,24.35,180.4
"2016-07-25 00:10:30",1838830,5.274,214.8,5.778,0.273,24.45,109.4788,23.56,24.51,30.42,0,111.2,13.01,24.39,176.8
"2016-07-25 00:11:00",1838831,5.121,217.1,3.562,0.303,24.55,109.4932,23.59,24.53,30.44,0,111.2,13.01,24.43,179.1
"2016-07-25 00:11:30",1838832,5.278,211.8,2.641,0.272,24.76,109.4962,23.6,24.52,30.11,0,111.2,13.01,24.43,173.8
"2016-07-25 00:12:00",1838833,5.064,208.6,2.39,0.242,24.59,109.5009,23.61,24.54,29.91,0,111.2,13.01,24.45,170.6
"2016-07-25 00:12:30",1838834,5.442,201.7,3.695,0.248,24.74,109.5036,23.62,24.55,29.57,0,111.2,13.02,24.45,163.7
"2016-07-25 00:13:00",1838835,4.921,202.9,5.815,0.221,24.64,109.5048,23.62,24.58,29.16,0,111.2,13.02,24.46,164.9
"2016-07-25 00:13:30",1838836,4.882,209.4,4.849,0.362,24.56,109.5194,23.66,24.58,29.07,0,111.2,13.02,24.49,171.4
"2016-07-25 00:14:00",1838837,4.443,217.4,5.248,0.379,24.52,109.5262,23.68,24.59,29.23,0,111.2,13.03,24.51,179.4
"2016-07-25 00:14:30",1838838,4.586,203.1,5.992,0.312,24.59,109.536,23.7,24.61,28.8,0,111.2,13.03,24.54,165.1
"2016-07-25 00:15:00",1838839,4.599,210.5,2.935,0.354,24.64,109.5382,23.71,24.61,28.41,0,111.2,13.03,24.54,172.5
"2016-07-25 00:15:30",1838840,4.586,213.4,7.523,0.166,24.61,109.5382,23.71,24.64,27.98,0,111.2,13.03,24.54,175.4
"2016-07-25 00:16:00",1838841,4.449,216.9,8.69,0.31,24.56,109.5382,23.71,24.64,28.63,0,111.2,13.03,24.54,178.9
"2016-07-25 00:16:30",1838842,4.002,210.8,4.107,0.365,24.61,109.5382,23.71,24.67,28.18,0,111.2,13.03,24.54,172.8
"2016-07-25 00:17:00",1838843,5.014,206.4,5.756,0.384,24.73,109.5382,23.71,24.67,27.74,0,111.2,13.03,24.54,168.4
"2016-07-25 00:17:30",1838844,5.019,200.7,2.53,0.259,24.82,109.5427,23.72,24.68,27.62,0,111.2,13.03,24.55,162.7
"2016-07-25 00:18:00",1838845,4.976,201.5,3.525,0.405,24.8,109.5554,23.75,24.69,27.7,0,111.2,13.03,24.59,163.5
"2016-07-25 00:18:30",1838846,4.207,215.1,3.681,0.298,24.65,109.5635,23.77,24.71,28.16,0,111.2,13.03,24.61,177.1
"2016-07-25 00:19:00",1838847,4.69,206,9.96,0.595,25.07,109.5697,23.79,24.71,27.74,0,111.2,13.03,24.62,168.0
"2016-07-25 00:19:30",1838848,4.483,206.8,5.984,0.37,24.92,109.572,23.79,24.73,26.97,0,111.2,13.03,24.63,168.8
"2016-07-25 00:20:00",1838849,4.059,216.9,5.029,0.348,24.6,109.572,23.79,24.74,28.15,0,111.2,13.03,24.63,178.9
"2016-07-25 00:20:30",1838850,3.848,213.9,4.496,0.202,24.58,109.572,23.79,24.76,28.39,0,111.2,13.03,24.63,175.9
"2016-07-25 00:21:00",1838851,3.901,211.2,3.168,0.319,24.63,109.5722,23.8,24.78,28.26,0,111.2,13.03,24.63,173.2
"2016-07-25 00:21:30",1838852,3.568,196.8,6.732,0.374,24.7,109.5788,23.81,24.8,27.73,0,111.2,13.03,24.65,158.8
"2016-07-25 00:22:00",1838853,4.026,193.2,2.842,0.355,24.72,109.5951,23.85,24.8,27.64,0,111.2,13.03,24.69,155.2
"2016-07-25 00:22:30",1838854,3.894,193,3.935,0.188,24.66,109.5967,23.86,24.81,27.25,0,111.2,13.03,24.69,155.0
"2016-07-25 00:23:00",1838855,3.653,189.1,2.651,0.305,24.63,109.6019,23.87,24.81,27.64,0,111.2,13.03,24.71,151.1
"2016-07-25 00:23:30",1838856,3.04,199,6.636,0.127,24.53,109.6117,23.9,24.83,27.79,0,111.2,13.03,24.73,161.0
"2016-07-25 00:24:00",1838857,3.001,209,3.917,0.219,24.62,109.618,23.91,24.85,27.96,0,111.2,13.03,24.75,171.0
"2016-07-25 00:24:30",1838858,2.746,209.7,3.771,0.238,24.57,109.6201,23.92,24.85,27.98,0,111.2,13.03,24.75,171.7
"2016-07-25 00:25:00",1838859,2.481,215.8,2.22,0.218,24.4,109.63,23.94,24.86,28.31,0,111.2,13.03,24.78,177.8
"2016-07-25 00:25:30",1838860,2.937,212.4,2.421,0.151,24.53,109.6315,23.95,24.87,27.94,0,111.2,13.03,24.78,174.4
"2016-07-25 00:26:00",1838861,2.819,212.8,3.121,0.179,24.46,109.6328,23.95,24.88,27.49,0,111.2,13.03,24.79,174.8
"2016-07-25 00:26:30",1838862,2.698,211.9,4.215,0.183,24.42,109.6331,23.95,24.88,27.36,0,111.2,13.03,24.79,173.9
"2016-07-25 00:27:00",1838863,2.869,200.6,3.099,0.222,24.42,109.6349,23.96,24.9,27.59,0,111.2,13.04,24.79,162.6
"2016-07-25 00:27:30",1838864,2.398,199.3,2.794,0.175,24.4,109.6346,23.96,24.9,28.14,0,111.2,13.03,24.79,161.3
"2016-07-25 00:28:00",1838865,2.241,193.2,3.052,0.264,24.43,109.6392,23.97,24.91,28.04,0,111.2,13.04,24.80,155.2
"2016-07-25 00:28:30",1838866,2.569,180.4,5.051,0.476,24.37,109.6386,23.97,24.89,27.85,0,111.2,13.04,24.80,142.4
"2016-07-25 00:29:00",1838867,1.211,175.4,30.25,1.056,23.57,109.6241,23.93,24.88,29.55,0,111.2,13.04,24.76,137.4
"2016-07-25 00:29:30",1838868,1.319,102.8,8.94,0.258,21.46,109.568,23.78,24.86,37.14,0,111.2,13.04,24.62,64.8
"2016-07-25 00:30:00",1838869,0.329,69.95,26.56,0.388,21.78,109.5346,23.7,24.8,39.25,0,111.2,13.04,24.53,31.9
"2016-07-25 00:30:30",1838870,1.339,106.3,15.48,0.398,22.11,109.5124,23.64,24.75,39.26,0,111.2,13.04,24.48,68.3
"2016-07-25 00:31:00",1838871,2.718,183.9,5.197,0.512,24.21,109.5077,23.63,24.67,32.99,0,111.2,13.04,24.46,145.9
"2016-07-25 00:31:30",1838872,3.947,190.7,3.977,0.153,24.65,109.4895,23.58,24.64,29.91,0,111.2,13.04,24.42,152.7
"2016-07-25 00:32:00",1838873,3.268,195.5,4.254,0.428,24.8,109.474,23.54,24.6,28.78,0,111.2,13.04,24.38,157.5
"2016-07-25 00:32:30",1838874,2.682,190,4.036,0.297,24.86,109.474,23.54,24.57,28.14,0,111.2,13.04,24.38,152.0
"2016-07-25 00:33:00",1838875,2.22,192.4,3.305,0.128,24.75,109.4608,23.51,24.54,28.09,0,111.1,13.04,24.34,154.4
"2016-07-25 00:33:30",1838876,2.471,195.1,2.747,0.141,24.67,109.4417,23.46,24.54,28.13,0,111.2,13.04,24.29,157.1
"2016-07-25 00:34:00",1838877,2.148,197.1,3.113,0.148,24.6,109.4403,23.46,24.5,28.09,0,111.2,13.04,24.29,159.1
"2016-07-25 00:34:30",1838878,2.597,196.9,5.55,0.211,24.69,109.4403,23.46,24.5,27.72,0,111.1,13.04,24.29,158.9
"2016-07-25 00:35:00",1838879,3.019,191.5,5.184,0.629,24.71,109.4403,23.46,24.48,27.62,0,111.2,13.04,24.29,153.5
"2016-07-25 00:35:30",1838880,4.168,186.5,2.4,0.206,24.54,109.4378,23.45,24.47,27.21,0,111.1,13.04,24.28,148.5
"2016-07-25 00:36:00",1838881,4.563,187.6,3.393,0.158,24.47,109.4316,23.43,24.44,27.22,0,111.1,13.04,24.27,149.6
"2016-07-25 00:36:30",1838882,3.544,184.1,3.508,0.356,23.83,109.4198,23.4,24.44,28.51,0,111.1,13.04,24.24,146.1
"2016-07-25 00:37:00",1838883,2.548,187.9,6.521,0.577,23.17,109.4078,23.37,24.43,31.6,0,111.1,13.04,24.21,149.9
"2016-07-25 00:37:30",1838884,2.001,197.8,9.93,0.395,22.74,109.3803,23.3,24.4,34.63,0,111.1,13.04,24.14,159.8
"2016-07-25 00:38:00",1838885,1.712,203.5,15.51,0.654,22.58,109.3418,23.2,24.36,36.08,0,111.1,13.04,24.04,165.5
"2016-07-25 00:38:30",1838886,1.171,209.5,10.18,0.752,22.26,109.2625,23,24.27,38.71,0,111.1,13.04,23.83,171.5
"2016-07-25 00:39:00",1838887,2.672,223.6,5.611,0.192,21.99,109.1473,22.7,24.12,41.1,0,111.1,13.04,23.54,185.6
"2016-07-25 00:39:30",1838888,3.492,221.9,2.182,0.317,22,109.075,22.52,23.95,42.1,0,111.1,13.04,23.35,183.9
"2016-07-25 00:40:00",1838889,4.066,224.8,1.93,0.171,22.11,109.0629,22.49,23.81,42.28,0,111.1,13.04,23.32,186.8
"2016-07-25 00:40:30",1838890,3.59,221.3,5.021,0.309,22.15,109.0595,22.48,23.73,42.6,0,111.1,13.04,23.31,183.3
"2016-07-25 00:41:00",1838891,3.28,217.9,4.199,0.299,22.22,109.0451,22.44,23.69,43.6,0,111.1,13.04,23.27,179.9
"2016-07-25 00:41:30",1838892,2.685,220.8,4.568,0.247,22.16,109.0471,22.45,23.64,44.16,0,111.1,13.04,23.28,182.8
"2016-07-25 00:42:00",1838893,3.218,223.1,4.712,0.272,22.24,109.0484,22.45,23.61,44.54,0,111.1,13.04,23.28,185.1
"2016-07-25 00:42:30",1838894,3.072,239.3,3.692,0.231,22.52,109.0265,22.39,23.57,43.99,0,111.1,13.04,23.22,201.3
"2016-07-25 00:43:00",1838895,2.649,234.3,3.926,0.184,22.92,109.0119,22.36,23.54,42.88,0,111.1,13.04,23.19,196.3
"2016-07-25 00:43:30",1838896,2.702,229.6,4.624,0.247,23.02,108.9938,22.31,23.48,41.97,0,111.1,13.04,23.14,191.6
"2016-07-25 00:44:00",1838897,2.67,229.7,4.944,0.188,23.06,108.9696,22.25,23.44,41.49,0,111.1,13.03,23.08,191.7
"2016-07-25 00:44:30",1838898,2.27,234.5,4.172,0.241,23.12,108.9604,22.22,23.38,41.21,0,111.1,13.04,23.05,196.5
"2016-07-25 00:45:00",1838899,3.025,235.1,2.393,0.263,22.94,108.9362,22.16,23.32,41.32,0,111.1,13.03,22.99,197.1
"2016-07-25 00:45:30",1838900,3.756,235.9,6.996,0.524,22.87,108.9269,22.14,23.28,42.17,0,111.1,13.04,22.97,197.9
"2016-07-25 00:46:00",1838901,4.541,230,8.99,0.168,22.8,108.9036,22.08,23.24,41.54,0,111.1,13.04,22.91,192.0
"2016-07-25 00:46:30",1838902,5.457,232.1,2.212,0.166,22.53,108.8696,21.99,23.19,42.99,0,111.1,13.04,22.82,194.1
"2016-07-25 00:47:00",1838903,5.28,234.8,4.575,0.424,22.07,108.7709,21.74,23.06,44.79,0,111.1,13.04,22.57,196.8
"2016-07-25 00:47:30",1838904,5.5,231.4,1.79,0.174,21.96,108.7291,21.63,22.92,45.74,0,111.1,13.04,22.46,193.4
"2016-07-25 00:48:00",1838905,5.103,235.5,3.535,0.245,21.95,108.7018,21.56,22.82,47.1,0,111.1,13.04,22.39,197.5
"2016-07-25 00:48:30",1838906,4.556,244.1,3.676,0.161,22.48,108.681,21.51,22.74,46.5,0,111.1,13.05,22.33,206.1
"2016-07-25 00:49:00",1838907,4.446,248.3,2.065,0.17,22.72,108.6512,21.43,22.68,45.19,0,111.1,13.05,22.26,210.3
"2016-07-25 00:49:30",1838908,4.285,250.9,2.95,0.171,22.87,108.6231,21.36,22.6,44.44,0,111.1,13.05,22.19,212.9
"2016-07-25 00:50:00",1838909,3.914,247.8,1.532,0.127,22.84,108.5992,21.3,22.54,44.45,0,111.1,13.05,22.12,209.8
"2016-07-25 00:50:30",1838910,4.092,245.4,2.597,0.205,22.79,108.5725,21.23,22.47,44.43,0,111.1,13.05,22.05,207.4
"2016-07-25 00:51:00",1838911,4.415,241.5,2.202,0.213,22.61,108.5481,21.17,22.41,44.8,0,111.1,13.05,21.99,203.5
"2016-07-25 00:51:30",1838912,5.461,240.3,4.182,0.373,22.04,108.4935,21.03,22.32,47.83,0,111.1,13.05,21.85,202.3
"2016-07-25 00:52:00",1838913,6.165,234.9,5.042,0.514,21.23,108.4297,20.86,22.21,51.65,0,111.1,13.05,21.69,196.9
"2016-07-25 00:52:30",1838914,5.72,237.4,6.263,0.256,22.04,108.3983,20.78,22.11,51.11,0,111.1,13.05,21.61,199.4
"2016-07-25 00:53:00",1838915,5.596,246.4,5.151,0.418,21.45,108.3775,20.73,22.02,51,0,111.1,13.05,21.55,208.4
"2016-07-25 00:53:30",1838916,4.619,250.6,5.166,0.384,23.1,108.3472,20.65,21.93,49.83,0,111.1,13.06,21.47,212.6
"2016-07-25 00:54:00",1838917,4.325,263.3,5.605,0.216,23.55,108.3265,20.6,21.86,46.29,0,111,13.06,21.42,225.3
"2016-07-25 00:54:30",1838918,4.363,259.2,2.547,0.126,23.38,108.3038,20.54,21.79,45.84,0,111,13.06,21.36,221.2
"2016-07-25 00:55:00",1838919,4.59,258.5,4.692,0.329,23.72,108.2862,20.49,21.73,45.09,0,111,13.06,21.32,220.5
"2016-07-25 00:55:30",1838920,5.148,268.7,1.948,0.239,24.58,108.2819,20.48,21.66,41.55,0,111,13.06,21.31,230.7
"2016-07-25 00:56:00",1838921,4.766,259.8,7.552,0.201,23.66,108.2832,20.49,21.62,40.73,0,111,13.06,21.31,221.8
"2016-07-25 00:56:30",1838922,5.148,245.2,3.745,0.404,22.49,108.2631,20.43,21.57,45.13,0,111,13.06,21.26,207.2
"2016-07-25 00:57:00",1838923,4.768,241.4,4.879,0.356,22.84,108.2573,20.42,21.55,45.49,0,111,13.06,21.24,203.4
"2016-07-25 00:57:30",1838924,4.755,251.5,8.74,0.262,23.21,108.2613,20.43,21.53,44.25,0,111,13.06,21.25,213.5
"2016-07-25 00:58:00",1838925,4.877,262.6,1.362,0.116,24.35,108.2646,20.44,21.5,42.13,0,111,13.06,21.26,224.6
"2016-07-25 00:58:30",1838926,4.543,257.4,6.743,0.23,23.98,108.2659,20.44,21.48,40.99,0,111,13.06,21.27,219.4
"2016-07-25 00:59:00",1838927,5.117,245.6,4.674,0.423,23.05,108.2659,20.44,21.49,41.22,0,111,13.06,21.27,207.6
"2016-07-25 00:59:30",1838928,5.746,250,1.882,0.337,23.02,108.2659,20.44,21.49,40.71,0,111,13.06,21.27,212.0
"2016-07-25 01:00:00",1838929,5.042,254.3,2.147,0.301,23.64,108.2681,20.45,21.48,40.22,0,111,13.06,21.27,216.3
"2016-07-25 01:00:30",1838930,5.398,251.6,3.444,0.427,23.46,108.2869,20.5,21.48,40.67,0,111,13.06,21.32,213.6
"2016-07-25 01:01:00",1838931,6.495,248.9,2.801,0.582,23.51,108.2988,20.53,21.49,38.12,0,111,13.05,21.35,210.9
"2016-07-25 01:01:30",1838932,7.286,244.5,2.809,0.451,23.27,108.2996,20.53,21.5,35.88,0,111,13.05,21.35,206.5
"2016-07-25 01:02:00",1838933,6.263,248.1,3.052,0.346,23.69,108.3072,20.55,21.52,36.16,0,111,13.05,21.37,210.1
"2016-07-25 01:02:30",1838934,6.944,247.3,2.623,0.56,23.56,108.3308,20.61,21.54,35.83,0,111,13.05,21.43,209.3
"2016-07-25 01:03:00",1838935,6.478,248.1,2.092,0.263,23.88,108.3333,20.61,21.56,35.68,0,111,13.05,21.44,210.1
"2016-07-25 01:03:30",1838936,6.065,251.5,1.525,0.151,24.12,108.3595,20.68,21.59,36.14,0,111,13.05,21.51,213.5
"2016-07-25 01:04:00",1838937,6.566,248.5,1.61,0.251,23.81,108.3676,20.7,21.62,35.91,0,111,13.05,21.53,210.5
"2016-07-25 01:04:30",1838938,6.574,251.1,1.547,0.205,23.96,108.389,20.76,21.65,35.95,0,111,13.06,21.58,213.1
"2016-07-25 01:05:00",1838939,6.557,255.1,3.142,0.19,23.95,108.4036,20.8,21.69,35.92,0,111,13.06,21.62,217.1
"2016-07-25 01:05:30",1838940,6.639,252.5,1.368,0.237,23.68,108.4329,20.87,21.72,35.88,0,111,13.06,21.70,214.5
"2016-07-25 01:06:00",1838941,6.343,256.9,2.334,0.246,23.96,108.4469,20.91,21.78,36.08,0,111,13.06,21.73,218.9
"2016-07-25 01:06:30",1838942,6.602,257.9,1.87,0.139,23.72,108.4683,20.96,21.83,36.14,0,111,13.06,21.79,219.9
"2016-07-25 01:07:00",1838943,6.299,261.3,1.953,0.17,24.08,108.4944,21.03,21.86,36.14,0,111,13.06,21.85,223.3
"2016-07-25 01:07:30",1838944,6.225,260.7,1.066,0.071,23.92,108.5121,21.07,21.93,36,0,111,13.06,21.90,222.7
"2016-07-25 01:08:00",1838945,6.218,261,1.551,0.126,23.79,108.5358,21.13,21.98,35.73,0,111,13.06,21.96,223.0
"2016-07-25 01:08:30",1838946,6.04,264.2,2.664,0.291,23.85,108.5613,21.2,22.02,35.29,0,111,13.06,22.03,226.2
"2016-07-25 01:09:00",1838947,6.113,260.6,2.178,0.137,23.8,108.5743,21.23,22.09,34.74,0,111,13.06,22.06,222.6
"2016-07-25 01:09:30",1838948,6.104,261,2.073,0.07,23.58,108.6018,21.3,22.13,34.46,0,111,13.06,22.13,223.0
"2016-07-25 01:10:00",1838949,6.09,262.1,1.31,0.191,23.57,108.6156,21.34,22.17,34.4,0,111,13.06,22.17,224.1
"2016-07-25 01:10:30",1838950,6.57,260.7,1.651,0.217,23.69,108.6362,21.39,22.21,33.42,0,111,13.06,22.22,222.7
"2016-07-25 01:11:00",1838951,7.006,260.8,1.247,0.064,23.5,108.6473,21.42,22.28,32.54,0,111,13.06,22.25,222.8
"2016-07-25 01:11:30",1838952,7.059,258.8,1.45,0.113,23.47,108.6726,21.49,22.31,32.04,0,111,13.06,22.31,220.8
"2016-07-25 01:12:00",1838953,7.167,255.7,0.942,0.059,23.5,108.6764,21.5,22.34,31.09,0,111,13.06,22.32,217.7
"2016-07-25 01:12:30",1838954,6.966,256.5,0.557,0.113,23.55,108.704,21.57,22.38,31.08,0,111,13.06,22.39,218.5
"2016-07-25 01:13:00",1838955,6.676,258,0.774,0.056,23.58,108.7112,21.58,22.42,31.33,0,111,13.06,22.41,220.0
"2016-07-25 01:13:30",1838956,6.704,257.5,0.979,0.062,23.59,108.7139,21.59,22.46,31.2,0,111,13.06,22.42,219.5
"2016-07-25 01:14:00",1838957,6.789,256.3,0.602,0.036,23.56,108.7323,21.64,22.48,30.75,0,111,13.06,22.47,218.3
"2016-07-25 01:14:30",1838958,6.934,255.4,0.668,0.142,23.41,108.7481,21.68,22.53,30.11,0,111,13.07,22.51,217.4
"2016-07-25 01:15:00",1838959,7.625,258.7,1.11,0.12,23.3,108.7486,21.68,22.55,30.23,0,111,13.07,22.51,220.7
"2016-07-25 01:15:30",1838960,7.464,261.7,2.211,0.204,23.29,108.7489,21.68,22.57,30.82,0,111,13.07,22.51,223.7
"2016-07-25 01:16:00",1838961,7.128,271.1,3.96,0.292,22.83,108.7515,21.69,22.6,31.23,0,111,13.07,22.52,233.1
"2016-07-25 01:16:30",1838962,6.984,275.9,2.027,0.165,22.69,108.7521,21.69,22.62,32.21,0,111,13.06,22.52,237.9
"2016-07-25 01:17:00",1838963,6.897,267.5,2.628,0.156,23.35,108.7529,21.69,22.66,31.51,0,111,13.06,22.52,229.5
"2016-07-25 01:17:30",1838964,6.237,264.6,2.242,0.231,23.46,108.7593,21.71,22.65,31.5,0,111,13.06,22.54,226.6
"2016-07-25 01:18:00",1838965,6.822,274.4,4.886,0.37,23.26,108.7593,21.71,22.64,32.15,0,111,13.06,22.54,236.4
"2016-07-25 01:18:30",1838966,7.145,283.1,1.275,0.15,22.83,108.7611,21.71,22.65,33.07,0,111,13.06,22.54,245.1
"2016-07-25 01:19:00",1838967,7.172,278.6,2.146,0.099,23.24,108.7636,21.72,22.65,34.96,0,111,13.06,22.55,240.6
"2016-07-25 01:19:30",1838968,7.263,279.5,1.568,0.172,23.15,108.7685,21.73,22.64,36.3,0,111,13.06,22.56,241.5
"2016-07-25 01:20:00",1838969,7.611,283,1.902,0.11,22.99,108.7539,21.69,22.66,38.09,0,111,13.06,22.52,245.0
"2016-07-25 01:20:30",1838970,7.535,283.7,1.462,0.206,23.01,108.739,21.66,22.65,38.82,0,111,13.06,22.48,245.7
"2016-07-25 01:21:00",1838971,7.486,282.9,2.545,0.183,23.1,108.7378,21.65,22.64,39.57,0,111,13.06,22.48,244.9
"2016-07-25 01:21:30",1838972,7.588,284.4,1.808,0.158,22.97,108.7188,21.6,22.62,40.66,0,111,13.06,22.43,246.4
"2016-07-25 01:22:00",1838973,8.12,285.4,1.401,0.21,23.05,108.7071,21.57,22.59,41.44,0,111,13.06,22.40,247.4
"2016-07-25 01:22:30",1838974,7.27,286.8,2.281,0.376,22.82,108.6975,21.55,22.59,41.32,0,111,13.07,22.38,248.8
"2016-07-25 01:23:00",1838975,7.222,287.9,1.822,0.177,22.84,108.673,21.49,22.54,41.01,0,111,13.07,22.31,249.9
"2016-07-25 01:23:30",1838976,6.994,290.5,3.354,0.283,22.77,108.6705,21.48,22.53,41.25,0,111,13.07,22.31,252.5
"2016-07-25 01:24:00",1838977,7.361,290.2,1.596,0.238,22.75,108.6441,21.41,22.49,41.45,0,111,13.07,22.24,252.2
"2016-07-25 01:24:30",1838978,7.155,291.5,2.017,0.227,22.78,108.6362,21.39,22.47,41.86,0,111,13.07,22.22,253.5
"2016-07-25 01:25:00",1838979,7.276,293.1,2.101,0.204,22.81,108.607,21.32,22.43,42.81,0,111,13.07,22.14,255.1
"2016-07-25 01:25:30",1838980,6.891,293.2,2.078,0.179,22.79,108.6025,21.31,22.4,42.93,0,111,13.07,22.13,255.2
"2016-07-25 01:26:00",1838981,6.913,292.8,1.572,0.172,22.81,108.5755,21.24,22.37,43.09,0,111,13.07,22.06,254.8
"2016-07-25 01:26:30",1838982,6.904,294.6,1.172,0.162,22.83,108.5676,21.22,22.34,42.93,0,111,13.07,22.04,256.6
"2016-07-25 01:27:00",1838983,7.114,294.3,0.826,0.11,23.02,108.5395,21.14,22.28,43.48,0,111,13.07,21.97,256.3
"2016-07-25 01:27:30",1838984,6.814,295.5,2.245,0.188,22.97,108.535,21.13,22.25,43.51,0,111,13.07,21.96,257.5
"2016-07-25 01:28:00",1838985,6.862,294.3,1.718,0.178,22.99,108.5071,21.06,22.21,43.47,0,111,13.07,21.89,256.3
"2016-07-25 01:28:30",1838986,6.837,291.1,1.249,0.169,23.13,108.504,21.05,22.16,43.67,0,111,13.07,21.88,253.1
"2016-07-25 01:29:00",1838987,6.74,292.9,1.866,0.217,23.08,108.4855,21.01,22.14,43.92,0,111,13.07,21.83,254.9
"2016-07-25 01:29:30",1838988,6.63,291.3,1.636,0.249,23.08,108.4711,20.97,22.1,44.09,0,111,13.07,21.79,253.3
"2016-07-25 01:30:00",1838989,6.443,291.5,1.272,0.131,23.12,108.4709,20.97,22.09,44.25,0,111,13.07,21.79,253.5
"2016-07-25 01:30:30",1838990,6.166,292.2,1.311,0.134,23.09,108.461,20.94,22.07,44.41,0,111,13.07,21.77,254.2
"2016-07-25 01:31:00",1838991,5.906,290.5,1.331,0.188,22.96,108.4399,20.89,22.02,44.55,0,111,13.07,21.71,252.5
"2016-07-25 01:31:30",1838992,5.548,290.1,1.457,0.151,22.86,108.4374,20.88,22,44.69,0,111,13.07,21.71,252.1
"2016-07-25 01:32:00",1838993,5.47,288.7,2.127,0.201,22.81,108.4374,20.88,21.99,44.86,0,111,13.07,21.71,250.7
"2016-07-25 01:32:30",1838994,5.596,286.8,2.106,0.197,22.93,108.4363,20.88,21.97,44.93,0,111,13.07,21.70,248.8
"2016-07-25 01:33:00",1838995,5.505,286.1,1.813,0.101,22.78,108.4295,20.86,21.95,44.99,0,111,13.07,21.69,248.1
"2016-07-25 01:33:30",1838996,5.71,286.9,2.608,0.183,22.8,108.4107,20.81,21.94,45.06,0,111,13.07,21.64,248.9
"2016-07-25 01:34:00",1838997,5.82,283.5,3.415,0.325,22.98,108.4036,20.8,21.92,45.24,0,111,13.07,21.62,245.5
"2016-07-25 01:34:30",1838998,5.517,285.4,3.746,0.322,22.94,108.4036,20.8,21.89,45.35,0,111,13.07,21.62,247.4
"2016-07-25 01:35:00",1838999,6.127,283,3.084,0.173,22.94,108.4036,20.8,21.88,45.56,0,111,13.06,21.62,245.0
"2016-07-25 01:35:30",1839000,5.766,286.5,5.474,0.368,22.88,108.4036,20.8,21.87,45.71,0,111,13.06,21.62,248.5
"2016-07-25 01:36:00",1839001,6.106,284.5,2.666,0.588,22.79,108.3972,20.78,21.85,45.68,0,111,13.06,21.60,246.5
"2016-07-25 01:36:30",1839002,6.538,285.9,4.46,0.383,22.87,108.389,20.76,21.84,46.04,0,111,13.07,21.58,247.9
"2016-07-25 01:37:00",1839003,6.575,288.4,6.603,0.237,22.72,108.3758,20.72,21.82,45.99,0,111,13.06,21.55,250.4
"2016-07-25 01:37:30",1839004,7.243,284.7,6.055,0.814,22.91,108.3699,20.71,21.8,46.32,0,111,13.06,21.53,246.7
"2016-07-25 01:38:00",1839005,7.558,282.8,5.563,0.72,22.9,108.3699,20.71,21.79,46.54,0,111,13.06,21.53,244.8
"2016-07-25 01:38:30",1839006,6.572,280.2,3.023,0.335,22.87,108.3699,20.71,21.76,46.7,0,111,13.06,21.53,242.2
"2016-07-25 01:39:00",1839007,6.639,281.9,3.61,0.295,22.82,108.3662,20.7,21.76,46.68,0,111,13.07,21.52,243.9
"2016-07-25 01:39:30",1839008,7.076,277.6,4.73,0.349,22.89,108.3603,20.68,21.74,47.05,0,111,13.07,21.51,239.6
"2016-07-25 01:40:00",1839009,6.609,285.9,2.296,0.412,22.79,108.3446,20.64,21.72,47.11,0,111,13.08,21.47,247.9
"2016-07-25 01:40:30",1839010,6.943,279.9,3.744,0.495,22.79,108.3364,20.62,21.72,47.1,0,111,13.08,21.45,241.9
"2016-07-25 01:41:00",1839011,7.044,276,3.396,0.619,22.88,108.3361,20.62,21.7,47.21,0,111,13.08,21.45,238.0
"2016-07-25 01:41:30",1839012,6.607,279.4,5.368,0.305,22.76,108.3361,20.62,21.7,47.39,0,111,13.08,21.45,241.4
"2016-07-25 01:42:00",1839013,5.858,274.9,7.956,0.462,22.72,108.3361,20.62,21.68,47.28,0,111,13.08,21.45,236.9
"2016-07-25 01:42:30",1839014,5.62,268.9,7.502,0.538,22.66,108.3359,20.62,21.67,47.18,0,111,13.08,21.45,230.9
"2016-07-25 01:43:00",1839015,6.599,276.2,4.649,0.415,22.75,108.3328,20.61,21.64,47.57,0,111,13.08,21.44,238.2
"2016-07-25 01:43:30",1839016,6.408,269.9,5.482,0.498,22.74,108.3252,20.59,21.64,47.79,0,111,13.08,21.42,231.9
"2016-07-25 01:44:00",1839017,5.916,268.6,4.057,0.286,22.65,108.3086,20.55,21.62,47.68,0,111,13.08,21.38,230.6
"2016-07-25 01:44:30",1839018,6.789,276.7,5.446,0.685,22.67,108.3024,20.54,21.61,47.69,0,111,13.08,21.36,238.7
"2016-07-25 01:45:00",1839019,6.433,284.2,7.401,0.512,22.6,108.3024,20.54,21.58,47.71,0,111,13.08,21.36,246.2
"2016-07-25 01:45:30",1839020,5.847,268.3,4.607,0.348,22.74,108.3024,20.54,21.59,48.08,0,111,13.08,21.36,230.3
"2016-07-25 01:46:00",1839021,5.303,266.2,4.509,0.371,22.61,108.3004,20.53,21.56,48.11,0,111,13.08,21.35,228.2
"2016-07-25 01:46:30",1839022,4.794,276.3,4.74,0.365,22.57,108.2892,20.5,21.57,48.15,0,111,13.08,21.33,238.3
"2016-07-25 01:47:00",1839023,3.718,277.7,7.031,0.235,22.19,108.2706,20.45,21.54,47.56,0,111,13.08,21.28,239.7
"2016-07-25 01:47:30",1839024,5.087,283.2,17.93,0.512,22.45,108.2686,20.45,21.51,47.55,0,111,13.08,21.27,245.2